Weather History for North Bend, OR

Change the Weather History Date:

Tuesday, June 3, 2014

  Actual Average Record
Temperature  
Mean Temperature 59 °F 55 °F  
Max Temperature 63 °F 61 °F 76 °F (1987)
Min Temperature 54 °F 49 °F 34 °F (1903)
Degree Days  
Heating Degree Days 6 10  
Month to date heating degree days 18 30  
Since 1 June heating degree days 18 30  
Since 1 July heating degree days 3898 4590  
Cooling Degree Days 0 0  
Month to date cooling degree days 0 0  
Year to date cooling degree days 12 0  
Since 1 June cooling degree days 0 0  
Growing Degree Days 8 (Base 50)    
Moisture  
Dew Point 51 °F    
Average Humidity 80    
Maximum Humidity 93    
Minimum Humidity 67    
Precipitation  
Precipitation 0.00 in 0.10 in 0.47 in (2008)
Month to date precipitation 0.00 0.31  
Year to date precipitation 21.56 34.48  
Sea Level Pressure  
Sea Level Pressure 30.08 in    
Wind  
Wind Speed 12 mph (North)    
Max Wind Speed 24 mph    
Max Gust Speed 29 mph    
Visibility 10 miles    
Events      
T = Trace of Precipitation, MM = Missing Value Source: NWS Daily Summary

Daily Weather History Graph

Daily Weather History Graph

Search for Another Location

Airport:

Trip Planner

Search our weather history database for the weather conditions in past years. The results will help you decide how hot, cold, wet, or windy it might be!

Date:

Astronomy

Jun. 03, 2014 Rise Set
Actual Time 5:38 AM PDT 8:52 PM PDT
Civil Twilight 5:03 AM PDT 9:27 PM PDT
Nautical Twilight 4:18 AM PDT 10:12 PM PDT
Astronomical Twilight 3:22 AM PDT 11:08 PM PDT
Moon 11:13 AM PDT (6/3) 12:17 AM PDT (6/3)
Length of Visible Light 16h 24m
Length of Day
15h 14m
Waxing Crescent, 31% of the Moon is Illuminated
Jun 3
Waxing Crescent
Jun 5
First Quarter
Jun 12
Full
Jun 19
Last Quarter
Jun 27
New

Hourly Weather History & Observations

Time (PDT) Temp. Dew Point Humidity Pressure Visibility Wind Dir Wind Speed Gust Speed Precip Events Conditions
12:15 AM 55.4 °F 50.0 °F 82% 30.03 in 10.0 mi North 8.1 mph - N/A   Overcast
12:35 AM 55.4 °F 48.2 °F 77% 30.03 in 10.0 mi North 8.1 mph - N/A   Overcast
12:55 AM 55.4 °F 48.2 °F 77% 30.03 in 10.0 mi North 8.1 mph - N/A   Overcast
1:15 AM 55.4 °F 48.2 °F 77% 30.03 in 10.0 mi North 8.1 mph - N/A   Overcast
1:35 AM 55.4 °F 48.2 °F 77% 30.03 in 10.0 mi North 6.9 mph - N/A   Overcast
1:55 AM 55.4 °F 50.0 °F 82% 30.03 in 10.0 mi North 8.1 mph - N/A   Overcast
2:15 AM 55.4 °F 48.2 °F 77% 30.03 in 10.0 mi North 5.8 mph - N/A   Overcast
2:35 AM 55.4 °F 50.0 °F 82% 30.03 in 10.0 mi North 6.9 mph - N/A   Overcast
2:55 AM 55.4 °F 50.0 °F 82% 30.03 in 10.0 mi North 6.9 mph - N/A   Overcast
3:15 AM 55.4 °F 50.0 °F 82% 30.03 in 10.0 mi North 4.6 mph - N/A   Overcast
3:35 AM 55.4 °F 50.0 °F 82% 30.03 in 10.0 mi North 4.6 mph - N/A   Overcast
3:55 AM 55.4 °F 50.0 °F 82% 30.03 in 10.0 mi North 3.5 mph - N/A   Overcast
4:15 AM 55.4 °F 50.0 °F 82% 30.04 in 10.0 mi North 4.6 mph - N/A   Overcast
4:35 AM 55.4 °F 50.0 °F 82% 30.04 in 10.0 mi North 5.8 mph - N/A   Overcast
4:55 AM 55.4 °F 50.0 °F 82% 30.04 in 10.0 mi NNW 3.5 mph - N/A   Overcast
5:15 AM 55.4 °F 51.8 °F 88% 30.05 in 10.0 mi NNW 3.5 mph - N/A   Overcast
5:35 AM 55.4 °F 50.0 °F 82% 30.05 in 10.0 mi North 4.6 mph - N/A   Overcast
5:55 AM 55.4 °F 50.0 °F 82% 30.05 in 10.0 mi NNW 4.6 mph - N/A   Overcast
6:15 AM 55.4 °F 50.0 °F 82% 30.05 in 10.0 mi NNW 4.6 mph - N/A   Overcast
6:35 AM 55.4 °F 50.0 °F 82% 30.06 in 10.0 mi North 4.6 mph - N/A   Overcast
6:55 AM 55.4 °F 50.0 °F 82% 30.06 in 10.0 mi NNW 5.8 mph - N/A   Overcast
7:15 AM 55.4 °F 50.0 °F 82% 30.07 in 10.0 mi North 3.5 mph - N/A   Overcast
7:35 AM 55.4 °F 50.0 °F 82% 30.07 in 10.0 mi North 4.6 mph - N/A   Overcast
7:55 AM 55.4 °F 50.0 °F 82% 30.08 in 10.0 mi North 5.8 mph - N/A   Overcast
8:15 AM 55.4 °F 50.0 °F 82% 30.08 in 10.0 mi North 5.8 mph - N/A   Overcast
8:35 AM 55.4 °F 51.8 °F 88% 30.09 in 10.0 mi North 8.1 mph - N/A   Overcast
8:55 AM 55.4 °F 51.8 °F 88% 30.09 in 9.0 mi North 8.1 mph - N/A   Overcast
9:15 AM 57.2 °F 51.8 °F 82% 30.10 in 10.0 mi North 6.9 mph - N/A   Overcast
9:35 AM 57.2 °F 50.0 °F 77% 30.10 in 10.0 mi North 9.2 mph - N/A   Overcast
9:55 AM 57.2 °F 50.0 °F 77% 30.10 in 10.0 mi North 11.5 mph - N/A   Overcast
10:15 AM 57.2 °F 50.0 °F 77% 30.10 in 10.0 mi North 11.5 mph - N/A   Overcast
10:35 AM 57.2 °F 50.0 °F 77% 30.10 in 10.0 mi North 9.2 mph 18.4 mph N/A   Overcast
10:55 AM 59.0 °F 50.0 °F 72% 30.11 in 10.0 mi North 12.7 mph - N/A   Overcast
11:15 AM 59.0 °F 50.0 °F 72% 30.11 in 10.0 mi North 12.7 mph 17.3 mph N/A   Overcast
11:35 AM 59.0 °F 50.0 °F 72% 30.11 in 10.0 mi North 16.1 mph - N/A   Overcast
11:55 AM 59.0 °F 50.0 °F 72% 30.11 in 10.0 mi North 15.0 mph - N/A   Overcast
12:15 PM 59.0 °F 50.0 °F 72% 30.11 in 10.0 mi North 13.8 mph - N/A   Overcast
12:55 PM 60.8 °F 51.8 °F 72% 30.11 in 10.0 mi North 17.3 mph 21.9 mph N/A   Overcast
1:15 PM 60.8 °F 51.8 °F 72% 30.10 in 10.0 mi North 17.3 mph 21.9 mph N/A   Overcast
1:35 PM 62.6 °F 51.8 °F 68% 30.10 in 10.0 mi North 18.4 mph 21.9 mph N/A   Partly Cloudy
1:55 PM 62.6 °F 51.8 °F 68% 30.10 in 10.0 mi North 17.3 mph 25.3 mph N/A   Clear
2:15 PM 62.6 °F 51.8 °F 68% 30.10 in 10.0 mi North 16.1 mph 26.5 mph N/A   Clear
2:35 PM 60.8 °F 51.8 °F 72% 30.10 in 10.0 mi North 19.6 mph 24.2 mph N/A   Clear
2:55 PM 62.6 °F 53.6 °F 72% 30.10 in 10.0 mi North 17.3 mph 24.2 mph N/A   Clear
3:15 PM 62.6 °F 53.6 °F 72% 30.10 in 10.0 mi North 21.9 mph 29.9 mph N/A   Clear
3:35 PM 60.8 °F 51.8 °F 72% 30.10 in 10.0 mi North 20.7 mph 27.6 mph N/A   Clear
3:55 PM 60.8 °F 51.8 °F 72% 30.10 in 10.0 mi North 19.6 mph 28.8 mph N/A   Clear
4:15 PM 62.6 °F 51.8 °F 68% 30.10 in 10.0 mi North 20.7 mph 25.3 mph N/A   Clear
4:35 PM 60.8 °F 53.6 °F 77% 30.10 in 10.0 mi North 20.7 mph 24.2 mph N/A   Clear
4:55 PM 60.8 °F 51.8 °F 72% 30.10 in 10.0 mi North 18.4 mph 24.2 mph N/A   Clear
5:15 PM 60.8 °F 51.8 °F 72% 30.10 in 10.0 mi North 20.7 mph 26.5 mph N/A   Clear
5:35 PM 60.8 °F 51.8 °F 72% 30.10 in 10.0 mi North 23.0 mph 28.8 mph N/A   Clear
5:55 PM 60.8 °F 51.8 °F 72% 30.09 in 10.0 mi North 24.2 mph 27.6 mph N/A   Clear
6:15 PM 60.8 °F 51.8 °F 72% 30.09 in 10.0 mi North 18.4 mph 27.6 mph N/A   Clear
6:35 PM 60.8 °F 51.8 °F 72% 30.09 in 10.0 mi North 21.9 mph 26.5 mph N/A   Clear
6:55 PM 59.0 °F 51.8 °F 77% 30.09 in 10.0 mi North 18.4 mph 26.5 mph N/A   Clear
7:15 PM 59.0 °F 51.8 °F 77% 30.10 in 10.0 mi North 17.3 mph 25.3 mph N/A   Clear
7:35 PM 57.2 °F 51.8 °F 82% 30.10 in 10.0 mi North 17.3 mph - N/A   Clear
8:15 PM 57.2 °F 53.6 °F 88% 30.10 in 10.0 mi North 13.8 mph - N/A   Clear
8:35 PM 55.4 °F 53.6 °F 94% 30.10 in 10.0 mi North 15.0 mph 21.9 mph N/A   Clear
8:55 PM 55.4 °F 53.6 °F 94% 30.10 in 10.0 mi North 12.7 mph - N/A   Clear
9:15 PM 55.4 °F 53.6 °F 94% 30.10 in 10.0 mi North 11.5 mph 17.3 mph N/A   Mostly Cloudy
9:35 PM 55.4 °F 53.6 °F 94% 30.11 in 10.0 mi North 12.7 mph - N/A   Overcast
10:15 PM 55.4 °F 53.6 °F 94% 30.12 in 10.0 mi North 10.4 mph - N/A   Partly Cloudy
10:35 PM 55.4 °F 51.8 °F 88% 30.12 in 10.0 mi North 9.2 mph - N/A   Clear
10:55 PM 55.4 °F 51.8 °F 88% 30.12 in 10.0 mi North 9.2 mph - N/A   Clear
11:15 PM 53.6 °F 51.8 °F 94% 30.12 in 10.0 mi North 5.8 mph - N/A   Clear
11:35 PM 53.6 °F 51.8 °F 94% 30.12 in 10.0 mi North 6.9 mph - N/A   Clear
11:55 PM 53.6 °F 51.8 °F 94% 30.12 in 10.0 mi North 6.9 mph - N/A   Clear